Location: Greenwich
(51.4790°N, 0.0090°E)
Time: 15:44:30
(UTC+01:00)

Transit 2A Rocket - Visible Passes

Search period start: 13 July 2025 00:00
Search period end: 23 July 2025 00:00
Orbit: 588 x 897 km, 66.7° (Epoch: 12 July)

Date Brightness Start Highest point End Pass type
(mag) Time Alt. Az. Time Alt. Az. Time Alt. Az.
13 Jul 6.1 00:33:57 10° WSW 00:38:00 36° NW 00:42:18 10° NNE visible
13 Jul 7.5 02:19:06 10° NW 02:21:45 15° NNW 02:24:30 10° NNE visible
13 Jul 7.7 04:03:27 10° NNW 04:06:07 15° NNE 04:08:54 10° NE visible
13 Jul 5.7 22:07:12 10° SSE 22:10:38 23° ESE 22:14:12 10° ENE visible
13 Jul 5.2 23:48:21 10° SW 23:52:37 56° NW 23:57:11 10° NNE visible
14 Jul 7.4 01:32:55 10° WNW 01:36:01 18° NNW 01:39:17 10° NNE visible
14 Jul 7.8 03:18:00 10° NNW 03:20:19 13° N 03:22:43 10° NE visible
14 Jul 4.5 23:03:02 10° SW 23:07:22 87° SE 23:11:59 10° NE visible
15 Jul 7.1 00:46:48 10° W 00:50:22 23° NNW 00:54:09 10° NNE visible
15 Jul 7.8 02:32:13 10° NNW 02:34:29 13° N 02:36:52 10° NNE visible
15 Jul 7.7 04:15:23 10° NNW 04:18:48 18° NNE 04:22:23 10° ENE visible
15 Jul 4.7 22:18:05 10° SSW 22:22:15 50° ESE 22:26:40 10° NE visible
16 Jul 6.5 00:00:52 10° W 00:04:50 32° NW 00:09:03 10° NNE visible
16 Jul 7.7 01:46:09 10° NW 01:48:42 14° N 01:51:20 10° NNE visible
16 Jul 7.8 03:30:11 10° NNW 03:33:04 15° NNE 03:36:04 10° NE visible
16 Jul 5.6 23:15:10 10° WSW 23:19:24 48° NW 23:23:55 10° NNE visible
17 Jul 7.6 00:59:57 10° WNW 01:02:56 17° NNW 01:06:03 10° NNE visible
17 Jul 7.9 02:44:48 10° NNW 02:47:16 14° N 02:49:50 10° NE visible
17 Jul 4.7 22:29:45 10° SW 22:34:06 79° NW 22:38:45 10° NE visible
18 Jul 7.4 00:13:48 10° WNW 00:17:15 21° NNW 00:20:54 10° NNE visible
18 Jul 7.9 01:59:08 10° NNW 02:01:27 13° N 02:03:51 10° NNE visible
18 Jul 7.8 03:42:04 10° NNW 03:45:42 20° NNE 03:49:33 10° ENE visible
18 Jul 4.6 21:44:41 10° SSW 21:48:56 61° ESE 21:53:29 10° NE visible
18 Jul 6.8 23:27:48 10° W 23:31:40 29° NW 23:35:46 10° NNE visible
19 Jul 7.9 01:13:09 10° NW 01:15:38 14° N 01:18:13 10° NNE visible
19 Jul 7.9 02:56:54 10° NNW 03:00:00 16° NNE 03:03:14 10° ENE visible
19 Jul 6.1 22:42:01 10° WSW 22:46:11 41° NW 22:50:40 10° NNE visible
20 Jul 7.8 00:26:58 10° NW 00:29:51 16° NNW 00:32:51 10° NNE visible
20 Jul 8.0 02:11:35 10° NNW 02:14:13 14° N 02:16:58 10° NE visible
20 Jul 7.3 03:53:51 10° NNW 03:58:11 29° NE 04:02:50 10° E visible
20 Jul 5.1 21:56:30 10° SW 22:00:50 66° NW 22:05:30 10° NE visible
20 Jul 7.6 23:40:48 10° WNW 23:44:08 20° NNW 23:47:39 10° NNE visible
21 Jul 8.1 01:26:00 10° NNW 01:28:24 14° N 01:30:52 10° NNE visible
21 Jul 7.7 03:08:45 10° NNW 03:12:36 22° NNE 03:16:41 10° ENE visible
21 Jul 7.2 22:54:45 10° W 22:58:31 26° NNW 23:02:31 10° NNE visible
22 Jul 8.1 00:40:07 10° NW 00:42:34 14° N 00:45:07 10° NNE visible
22 Jul 8.0 02:23:36 10° NNW 02:26:55 18° NNE 02:30:24 10° ENE visible
22 Jul 6.3 04:05:37 10° NNW 04:10:29 46° NE 04:15:46 10° ESE visible
22 Jul 6.5 22:08:53 10° WSW 22:12:59 36° NW 22:17:24 10° NNE visible
22 Jul 8.0 23:54:00 10° NW 23:56:46 15° NNW 23:59:40 10° NNE visible
